Cape Cod CGAS, MA

5:33 PM EDT on June 27, 2017 (GMT -0400)
Cape Cod Coast Guard Air Station

Weather History for KFMH - February, 2009

Change the Weather History Date:

Saturday, February 14, 2009

  Actual Average Record
Temperature  
Mean Temperature 34 °F -  
Max Temperature 44 °F 36 °F 55 °F (2000)
Min Temperature 23 °F 21 °F -9 °F (2016)
Degree Days  
Heating Degree Days 32    
Moisture  
Dew Point 13 °F    
Average Humidity 47    
Maximum Humidity 64    
Minimum Humidity 27    
Precipitation  
Precipitation 0.00 in - - ()
Sea Level Pressure  
Sea Level Pressure 29.78 in    
Wind  
Wind Speed 13 mph (West)    
Max Wind Speed 18 mph    
Max Gust Speed 25 mph    
Visibility 15 miles    
Events      
Averages and records for this station are not official NWS values.
T = Trace of Precipitation, MM = Missing Value Source: NWS Daily Summary

Daily Weather History Graph

Daily Weather History Graph

Search for Another Location

Airport or City:

Trip Planner

Search our weather history database for the weather conditions in past years. The results will help you decide how hot, cold, wet, or windy it might be!

Date:

Astronomy

Feb. 14, 2009 Rise Set
Actual Time 6:38 AM EST 5:14 PM EST
Civil Twilight 6:10 AM EST 5:43 PM EST
Nautical Twilight 5:37 AM EST 6:15 PM EST
Astronomical Twilight 5:05 AM EST 6:47 PM EST
Moon 11:24 PM EST (2/14) 8:44 AM EST (2/14)
Length of Visible Light 11h 33m
Length of Day
10h 35m
Waning Gibbous, 71% of the Moon is Illuminated
Feb 14
Waning Gibbous
Feb 16
Last Quarter
Feb 24
New
Mar 4
First Quarter
Mar 10
Full

Hourly Weather History & Observations

Time (EST) Temp. Windchill Dew Point Humidity Pressure Visibility Wind Dir Wind Speed Gust Speed Precip Events Conditions
12:55 AM 24.8 °F 15.3 °F 14.0 °F 64% 29.84 in 15.0 mi West 9.2 mph - N/A   Clear
1:55 AM 24.8 °F 14.6 °F 14.0 °F 64% 29.84 in 15.0 mi West 10.4 mph - N/A   Clear
2:55 AM 24.8 °F 12.4 °F 12.2 °F 59% 29.82 in 15.0 mi West 15.0 mph - N/A   Clear
3:55 AM 23.0 °F 9.6 °F 12.2 °F 63% 29.81 in 15.0 mi WNW 16.1 mph - N/A   Clear
4:55 AM 23.0 °F 8.7 °F 12.2 °F 63% 29.81 in 15.0 mi West 18.4 mph - N/A   Clear
5:55 AM 23.0 °F 9.2 °F 12.2 °F 63% 29.82 in 15.0 mi West 17.3 mph - N/A   Clear
6:55 AM 23.0 °F 9.6 °F 12.2 °F 63% 29.81 in 15.0 mi West 16.1 mph - N/A   Clear
7:55 AM 24.8 °F 11.1 °F 14.0 °F 64% 29.81 in 15.0 mi West 18.4 mph - N/A   Clear
8:55 AM 28.4 °F 16.2 °F 10.4 °F 47% 29.79 in 15.0 mi West 17.3 mph - N/A   Partly Cloudy
9:55 AM 35.6 °F 25.2 °F 14.0 °F 41% 29.78 in 15.0 mi WNW 18.4 mph - N/A   Mostly Cloudy
10:55 AM 37.4 °F 27.8 °F 14.0 °F 38% 29.77 in 15.0 mi WNW 17.3 mph - N/A   Mostly Cloudy
11:55 AM 41.0 °F 32.8 °F 12.2 °F 31% 29.75 in 15.0 mi West 16.1 mph - N/A   Mostly Cloudy
12:55 PM 42.8 °F 34.8 °F 12.2 °F 29% 29.74 in 15.0 mi WNW 17.3 mph 25.3 mph N/A   Mostly Cloudy
1:55 PM 42.8 °F 35.1 °F 12.2 °F 29% 29.73 in 15.0 mi WNW 16.1 mph - N/A   Mostly Cloudy
2:55 PM 44.6 °F 36.9 °F 12.2 °F 27% 29.73 in 15.0 mi WNW 18.4 mph - N/A   Scattered Clouds
3:55 PM 42.8 °F 35.1 °F 10.4 °F 27% 29.73 in 15.0 mi WNW 16.1 mph - N/A   Scattered Clouds
4:55 PM 39.2 °F 31.6 °F 12.2 °F 33% 29.73 in 15.0 mi West 12.7 mph - N/A   Partly Cloudy
5:55 PM 35.6 °F 28.6 °F 14.0 °F 41% 29.74 in 15.0 mi West 9.2 mph - N/A   Partly Cloudy
6:55 PM 33.8 °F 30.8 °F 12.2 °F 41% 29.77 in 15.0 mi West 3.5 mph - N/A   Partly Cloudy
7:55 PM 32.0 °F 26.4 °F 14.0 °F 48% 29.77 in 15.0 mi West 5.8 mph - N/A   Partly Cloudy
8:55 PM 30.2 °F 23.4 °F 14.0 °F 51% 29.78 in 15.0 mi West 6.9 mph - N/A   Scattered Clouds
9:55 PM 32.0 °F 23.6 °F 14.0 °F 48% 29.78 in 15.0 mi West 10.4 mph - N/A   Mostly Cloudy
10:55 PM 30.2 °F 22.6 °F 14.0 °F 51% 29.78 in 15.0 mi WNW 8.1 mph - N/A   Scattered Clouds
11:55 PM 30.2 °F 21.3 °F 14.0 °F 51% 29.79 in 15.0 mi WNW 10.4 mph - N/A   Mostly Cloudy